Weather History for Unalakleet, AK

Change the Weather History Date:

Saturday, February 16, 2013

  Actual Average Record
Temperature  
Mean Temperature -12 °F -  
Max Temperature -7 °F 9 °F 37 °F (1986)
Min Temperature -18 °F -6 °F -40 °F (1964)
Degree Days  
Heating Degree Days 78    
Moisture  
Dew Point -19 °F    
Average Humidity 75    
Maximum Humidity 100    
Minimum Humidity 41    
Precipitation  
Precipitation 0.00 in - - ()
Sea Level Pressure  
Sea Level Pressure 30.12 in    
Wind  
Wind Speed 10 mph (East)    
Max Wind Speed 15 mph    
Max Gust Speed -    
Visibility 10 miles    
Events      
Averages and records for this station are not official NWS values.
T = Trace of Precipitation, MM = Missing Value Source: NWS Daily Summary

Daily Weather History Graph

Daily Weather History Graph

Search for Another Location

Airport:

Trip Planner

Search our weather history database for the weather conditions in past years. The results will help you decide how hot, cold, wet, or windy it might be!

Date:

Astronomy

Feb. 16, 2013 Rise Set
Actual Time 9:32 AM AKST 6:23 PM AKST
Civil Twilight 8:42 AM AKST 7:13 PM AKST
Nautical Twilight 7:46 AM AKST 8:09 PM AKST
Astronomical Twilight 6:52 AM AKST 9:03 PM AKST
Moon 10:16 AM AKST (2/16) 3:05 AM AKST (2/16)
Length of Visible Light 10h 31m
Length of Day
8h 51m
Waxing Crescent, 41% of the Moon is Illuminated
Feb 16
Waxing Crescent
Feb 17
First Quarter
Feb 25
Full
Mar 4
Last Quarter
Mar 11
New

Hourly Weather History & Observations

Time (AKST) Temp. Windchill Dew Point Humidity Pressure Visibility Wind Dir Wind Speed Gust Speed Precip Events Conditions
12:16 AM -9.4 °F -29.8 °F -18.4 °F 65% 30.06 in 8.0 mi East 12.7 mph - N/A   Overcast
12:36 AM -9.4 °F -30.6 °F -13.0 °F 84% 30.07 in 5.0 mi East 13.8 mph - N/A   Overcast
12:56 AM -9.4 °F -28.9 °F -18.4 °F 65% 30.07 in 10.0 mi East 11.5 mph - N/A   Scattered Clouds
1:16 AM -9.4 °F -27.9 °F -14.8 °F 77% 30.08 in 10.0 mi East 10.4 mph - N/A   Partly Cloudy
1:36 AM -9.4 °F -28.9 °F -16.6 °F 71% 30.08 in 10.0 mi East 11.5 mph - N/A   Scattered Clouds
1:56 AM -9.4 °F -28.9 °F -16.6 °F 71% 30.08 in 10.0 mi East 11.5 mph - N/A   Mostly Cloudy
2:16 AM -9.4 °F -27.9 °F -14.8 °F 77% 30.09 in 10.0 mi East 10.4 mph - N/A   Overcast
2:36 AM -9.4 °F -29.8 °F -16.6 °F 71% 30.09 in 10.0 mi East 12.7 mph - N/A   Overcast
2:56 AM -9.4 °F -31.4 °F -14.8 °F 77% 30.09 in 9.0 mi East 15.0 mph - N/A   Overcast
3:16 AM -9.4 °F -30.6 °F -16.6 °F 71% 30.09 in 7.0 mi East 13.8 mph - N/A   Overcast
3:36 AM -9.4 °F -30.6 °F -16.6 °F 71% 30.10 in 6.0 mi East 13.8 mph - N/A   Overcast
3:56 AM -11.2 °F -32.1 °F -14.8 °F 84% 30.10 in 6.0 mi ENE 12.7 mph - N/A   Overcast
4:16 AM -9.4 °F -30.6 °F -18.4 °F 65% 30.10 in 10.0 mi East 13.8 mph - N/A   Overcast
4:36 AM -11.2 °F -32.9 °F -14.8 °F 84% 30.10 in 10.0 mi East 13.8 mph - N/A   Scattered Clouds
4:56 AM -11.2 °F -31.1 °F -20.2 °F 64% 30.10 in 10.0 mi ENE 11.5 mph - N/A   Clear
5:16 AM -11.2 °F -31.1 °F -16.6 °F 77% 30.10 in 10.0 mi East 11.5 mph - N/A   Clear
5:36 AM -11.2 °F -32.1 °F -16.6 °F 77% 30.10 in 10.0 mi ENE 12.7 mph - N/A   Clear
5:56 AM -11.2 °F -32.1 °F -20.2 °F 64% 30.10 in 10.0 mi East 12.7 mph - N/A   Clear
6:16 AM -13.0 °F -31.3 °F -18.4 °F 77% 30.11 in 10.0 mi East 9.2 mph - N/A   Clear
6:36 AM -14.8 °F -33.5 °F -20.2 °F 77% 30.11 in 10.0 mi East 9.2 mph - N/A   Partly Cloudy
6:56 AM -13.0 °F -35.2 °F -13.0 °F 100% 30.11 in 10.0 mi East 13.8 mph - N/A   Scattered Clouds
7:16 AM -11.2 °F -32.1 °F -23.8 °F 54% 30.11 in 10.0 mi East 12.7 mph - N/A   Mostly Cloudy
7:36 AM -13.0 °F -34.3 °F -20.2 °F 70% 30.11 in 9.0 mi ENE 12.7 mph - N/A   Overcast
7:56 AM -13.0 °F -35.2 °F -20.2 °F 70% 30.11 in 10.0 mi ENE 13.8 mph - N/A   Mostly Cloudy
8:16 AM -14.8 °F -35.6 °F -20.2 °F 77% 30.12 in 10.0 mi ENE 11.5 mph - N/A   Partly Cloudy
8:36 AM -14.8 °F -34.6 °F -23.8 °F 64% 30.12 in 10.0 mi East 10.4 mph - N/A   Clear
8:56 AM -14.8 °F -35.6 °F -14.8 °F 100% 30.11 in 10.0 mi ENE 11.5 mph - N/A   Clear
9:16 AM -14.8 °F -33.5 °F -25.6 °F 58% 30.12 in 10.0 mi East 9.2 mph - N/A   Clear
9:36 AM -16.6 °F -35.7 °F -25.6 °F 64% 30.12 in 10.0 mi East 9.2 mph - N/A   Clear
9:56 AM -16.6 °F -36.8 °F -16.6 °F 100% 30.12 in 10.0 mi East 10.4 mph - N/A   Clear
10:16 AM -14.8 °F -36.6 °F -23.8 °F 64% 30.12 in 10.0 mi ENE 12.7 mph - N/A   Clear
10:36 AM -14.8 °F -34.6 °F -23.8 °F 64% 30.12 in 10.0 mi ENE 10.4 mph - N/A   Clear
10:56 AM -14.8 °F -37.5 °F -18.4 °F 84% 30.13 in 10.0 mi ENE 13.8 mph - N/A   Clear
11:16 AM -14.8 °F -36.6 °F -25.6 °F 58% 30.13 in 10.0 mi ENE 12.7 mph - N/A   Clear
11:36 AM -16.6 °F -31.3 °F -27.4 °F 58% 30.14 in 10.0 mi ESE 5.8 mph - N/A   Clear
11:56 AM -16.6 °F -35.7 °F -16.6 °F 100% 30.14 in 10.0 mi SSE 9.2 mph - N/A   Clear
12:16 PM -18.4 °F -33.4 °F -29.2 °F 58% 30.14 in 10.0 mi SSE 5.8 mph - N/A   Clear
12:36 PM -13.0 °F -25.1 °F -14.8 °F 92% 30.14 in 10.0 mi SE 4.6 mph - N/A   Clear
12:56 PM -14.8 °F -33.5 °F - N/A% 30.15 in 10.0 mi SE 9.2 mph - N/A   Clear
1:16 PM -14.8 °F -33.5 °F -29.2 °F 48% 30.15 in 10.0 mi East 9.2 mph - N/A   Clear
1:36 PM -13.0 °F -34.3 °F -13.0 °F 100% 30.15 in 10.0 mi ENE 12.7 mph - N/A   Clear
1:56 PM -11.2 °F -26.4 °F -29.2 °F 41% 30.15 in 10.0 mi East 6.9 mph - N/A   Clear
2:16 PM -11.2 °F -29.0 °F -14.8 °F 84% 30.15 in 10.0 mi ESE 9.2 mph - N/A   Clear
2:36 PM -11.2 °F -27.8 °F -20.2 °F 64% 30.15 in 10.0 mi East 8.1 mph - N/A   Clear
2:56 PM -11.2 °F -26.4 °F -20.2 °F 64% 30.14 in 10.0 mi East 6.9 mph - N/A   Clear
3:16 PM -7.6 °F -16.5 °F -11.2 °F 84% 30.14 in 10.0 mi ENE 3.5 mph - N/A   Clear
3:36 PM -7.6 °F -22.1 °F -16.6 °F 65% 30.13 in 10.0 mi ENE 6.9 mph - N/A   Clear
3:56 PM -7.6 °F - -11.2 °F 84% 30.13 in 10.0 mi Calm Calm - N/A   Clear
4:16 PM -9.4 °F - -22.0 °F 54% 30.13 in 10.0 mi Calm Calm - N/A   Clear
4:36 PM -9.4 °F - -13.0 °F 84% 30.12 in 10.0 mi Calm Calm - N/A   Clear
4:56 PM -11.2 °F - -23.8 °F 54% 30.11 in 10.0 mi Calm Calm - N/A   Clear
5:16 PM -14.8 °F -29.1 °F -22.0 °F 70% 30.11 in 10.0 mi SSE 5.8 mph - N/A   Clear
5:36 PM -14.8 °F - -23.8 °F 64% 30.11 in 10.0 mi Calm Calm - N/A   Clear
5:56 PM -14.8 °F -24.8 °F -20.2 °F 77% 30.11 in 10.0 mi SE 3.5 mph - N/A   Clear
6:16 PM -14.8 °F -24.8 °F -20.2 °F 77% 30.11 in 10.0 mi SE 3.5 mph - N/A   Clear
6:36 PM -14.8 °F -24.8 °F -18.4 °F 84% 30.11 in 10.0 mi SE 3.5 mph - N/A   Clear
6:56 PM -16.6 °F - -23.8 °F 70% 30.11 in 10.0 mi Calm Calm - N/A   Clear
7:16 PM -18.4 °F - - N/A% 30.11 in 10.0 mi Calm Calm - N/A   Clear
7:36 PM -18.4 °F - -18.4 °F 100% 30.11 in 10.0 mi Calm Calm - N/A   Clear
7:56 PM -18.4 °F - - N/A% 30.11 in 10.0 mi Calm Calm - N/A   Clear
8:16 PM -16.6 °F - -16.6 °F 100% 30.11 in 10.0 mi Calm Calm - N/A   Clear
8:36 PM -16.6 °F -26.8 °F - N/A% 30.11 in 10.0 mi ESE 3.5 mph - N/A   Clear
8:56 PM -18.4 °F - -25.6 °F 70% 30.12 in 10.0 mi Calm Calm - N/A   Clear
9:16 PM -18.4 °F - -18.4 °F 100% 30.12 in 10.0 mi Calm Calm - N/A   Clear
9:36 PM -16.6 °F -31.3 °F -20.2 °F 84% 30.12 in 10.0 mi SSE 5.8 mph - N/A   Clear
9:56 PM -16.6 °F -34.4 °F -23.8 °F 70% 30.12 in 10.0 mi SE 8.1 mph - N/A   Clear
10:16 PM -14.8 °F -32.2 °F -14.8 °F 100% 30.13 in 10.0 mi ESE 8.1 mph - N/A   Clear
10:36 PM -14.8 °F -29.1 °F -25.6 °F 58% 30.13 in 10.0 mi SE 5.8 mph - N/A   Clear
10:56 PM -13.0 °F -30.0 °F -13.0 °F 100% 30.13 in 10.0 mi ESE 8.1 mph - N/A   Clear
11:16 PM -18.4 °F -33.4 °F - N/A% 30.14 in 10.0 mi East 5.8 mph - N/A   Clear
11:36 PM -16.6 °F - -25.6 °F 64% 30.14 in 10.0 mi Calm Calm - N/A   Clear
11:56 PM -14.8 °F - -14.8 °F 100% 30.14 in 10.0 mi Calm Calm - N/A   Clear